Flag for U.S.A. Weather past 2 weeks in Little Rock, Arkansas, U.S.A.

Now
52 °F

Light rain. Fog.


Feels Like: 52 °F
Forecast: 29 / 56 °F
Wind: No wind

Location: Adams Field

Current Time: Mar 4, 2015 at 6:22:22 AM

Latest Report: Mar 4, 2015 at 5:53 AM


Visibility: 0 mi

Pressure: 29.90 "Hg

Humidity: 89%

Dew point: 49 °F

Location of Little RockLocation

Historic Weather in Little Rock — Graph

°F

Little Rock temperature yesterday

Maximum temperature yesterday: 57 °F (at 3:53 PM)
Minimum temperature yesterday: 35 °F (at 12:53 AM)
Average temperature yesterday: 45 °F

Past Weeks' High & Low Weather Summary

 TemperatureHumidityPressure
High59 °F (Feb 21, 7:53 AM)94% (Mar 3, 9:00 PM)30.68 "Hg (Mar 3, 9:00 PM)
Low19 °F (Feb 19, 3:53 AM)24% (Feb 18, 2:53 PM)29.77 "Hg (Feb 21, 4:01 AM)
Average33 °F70%30.27 "Hg
* Reported Feb 17 4:53 AM — Mar 4 4:53 AM, Little Rock, Weather by CustomWeather, © 2015

Note: Actual official high and low records may vary slightly from our data, if they occured in-between our weather recording intervals... More about our weather records

Advertising

Little Rock weather history for previous 24 hours

 ConditionsComfort  
Time TempWeatherWind HumidityBarometerVisibility
4:53 AM
Wed, Mar 4
52 °FLight rain. Fog.No wind93%29.89 "Hg1 mi
3:53 AM52 °FFog.No wind93%29.87 "Hg1 mi
2:53 AM52 °FLight rain. Fog.7 mph93%29.87 "Hg1 mi
1:53 AM53 °FLight rain. Fog.No wind89%29.86 "Hg1 mi
12:53 AM53 °FFog.No wind93%29.87 "Hg1 mi
11:53 PM
Tue, Mar 3
52 °FLight rain. Fog.3 mph93%29.88 "Hg0 mi
10:53 PM53 °FLight rain. Fog.No wind89%29.88 "Hg0 mi
9:53 PM52 °FFog.3 mph93%29.89 "Hg0 mi
9:00 PM54 °FDrizzle. Fog.No wind94%29.88 "Hg0 mi
7:53 PM53 °FDrizzle. Fog.No wind93%29.89 "Hg1 mi
6:53 PM53 °FDrizzle. Fog.3 mph93%29.89 "Hg1 mi
5:53 PM55 °FFog.6 mph87%29.89 "Hg1 mi
4:53 PM56 °FLow clouds.7 mph84%29.89 "Hg7 mi
3:53 PM57 °FOvercast.6 mph74%29.90 "Hg10 mi
2:53 PM56 °FLow clouds.9 mph77%29.90 "Hg7 mi
1:53 PM52 °FLow clouds.9 mph80%29.95 "Hg7 mi
12:53 PM47 °FFog.7 mph83%30.01 "Hg6 mi
11:53 AM44 °FLight rain. Fog.5 mph85%30.05 "Hg4 mi
10:53 AM42 °FFog.8 mph85%30.07 "Hg4 mi
9:53 AM41 °FFog.7 mph86%30.07 "Hg3 mi
8:53 AM38 °FFog.6 mph93%30.08 "Hg0 mi
7:53 AM37 °FFog.7 mph89%30.09 "Hg0 mi
6:53 AM36 °FFog.3 mph92%30.09 "Hg1 mi
Weather by CustomWeather, © 2015

See weather overviewHow to use our weather pages